Regional Weather Roundup
Issued by NWS

Home | Current Version | Previous Version | Text Only | Print | Product List | Glossary Off
Versions: 1 2 3 4 5 6 7 8 9 10 11 12 13 14 15 16 17 18 19 20 21 22 23 24 25 26 27 28 29 30 31 32 33 34 35 36 37 38 39 40 41 42 43 44 45 46 47 48 49 50

000
ASUS43 KIND 251709
RWRIN

WEATHER ROUNDUP FOR INDIANA
NATIONAL WEATHER SERVICE INDIANAPOLIS IN
1200 PM EST SUN FEB 25 2018

NOTE: "FAIR" INDICATES FEW OR NO CLOUDS BELOW 12,000 FEET WITH NO
SIGNIFICANT WEATHER AND/OR OBSTRUCTIONS TO VISIBILITY.

* - STATION DOES NOT REPORT WEATHER SUCH AS PRECIPITATION OR FOG.

+ - STATION NOT QUALITY CONTROLLED BY THE NATIONAL WEATHER SERVICE.
    USE DATA WITH CAUTION...ESPECIALLY DEWPOINT AND RELATIVE
    HUMIDITY OBSERVATIONS.

INZ001>003-010>013-019-020-251800-
NORTHWEST INDIANA

CITY           SKY/WX    TMP DP  RH WIND       PRES   REMARKS
GARY /AIRPORT/ MOSUNNY   41  25  52 MISG      29.93R
LA PORTE +     PTSUNNY   37  28  68 W14G25    29.94R WCI  29
MICHIGAN CITY+ PTSUNNY   39  28  65 SW22G28   29.94R WCI  29
MONTICELLO +   CLOUDY    38  29  71 SW21G26   30.00R WCI  27
RENSSELAER +   PTSUNNY   37  28  70 SW20G29   29.99R WCI  27
VALPARAISO     FAIR      40  27  59 W25G33    29.95R WCI  29

$$

LMZ046-743>745-251800-
SOUTHERN LAKE MICHIGAN

STATION/POSITION TIME  TEMP    WIND        PRES    WAVE
                       AIR SEA DIR/SP/G            HT
                 (UTC) (F)     (DEG/KT/KT) (MB)    (FT)
BURNS HARBOR     1640   38     230/ 17/ 27 1013.9R
MICHIGAN CITY    1640   36     220/ 21/ 24   N/A

$$

INZ004-005-014>016-021>024-251800-
NORTH CENTRAL INDIANA

CITY           SKY/WX    TMP DP  RH WIND       PRES   REMARKS
GOSHEN         CLOUDY    38  27  64 SW22G29   29.93R WCI  27
LOGANSPORT +   CLOUDY    37  30  75 SW20G28   30.01R WCI  27
PERU/GRISSOM   CLOUDY    38  32  78 W20G31    29.99R WCI  28
ROCHESTER +    CLOUDY    39  32  75 SW18G26   29.98R WCI  30
SOUTH BEND     PTSUNNY   39  27  62 W26G35    29.93R WCI  28
WARSAW +       CLOUDY    36  28  75 E16G24    29.96R WCI  26

$$

INZ006>009-017-018-025>027-251800-
NORTHEAST INDIANA

CITY           SKY/WX    TMP DP  RH WIND       PRES   REMARKS
AUBURN +       CLOUDY    37  30  75 SW14G25   29.96R WCI  29
FORT WAYNE     CLOUDY    39  30  70 SW23G32   29.98R WCI  28
HUNTINGTON +   CLOUDY    37  28  71 W21G28    29.99R WCI  26
KENDALLVILLE + CLOUDY    37  29  74 SW22G33   29.93R WCI  26

$$

INZ028-029-035-036-043>045-051>053-251800-
WEST CENTRAL INDIANA

CITY           SKY/WX    TMP DP  RH WIND       PRES   REMARKS
CRAWFORDSVL +  PTSUNNY   38  32  78 SW20        N/A  WCI  29
GREENCASTLE +  FAIR      41  32  70 W10G16    30.06R
LAFAYETTE      CLOUDY    39  29  67 W12G23    30.03R WCI  32
TERRE HAUTE    FAIR      43  32  65 SW16      30.09R

$$

INZ030>032-037>040-046>048-054>057-064-065-251800-
CENTRAL INDIANA

CITY           SKY/WX    TMP DP  RH WIND       PRES   REMARKS
COLUMBUS       PTSUNNY   45 N/A N/A SW13      30.08R
FISHERS *+     FAIR      41  34  75 W12G18    30.05
FRANKFORT +    CLOUDY    43  35  72 W20G31    30.04R
GREENWOOD *+   FAIR      41 -47   2 SW10G18   30.05R
INDIANAPOLIS   PTSUNNY   43  32  65 W20G26    30.05R
-EAGLE CREEK   PTSUNNY   42  31  64 SW12G21   30.04R
KOKOMO +       CLOUDY    38  30  73 SW26      30.02R WCI  26
MARION +       CLOUDY    37  31  79 SW18G28   30.03R WCI  27
MT COMFORT *+  FAIR      43  36  75 W17       30.04R
SHELBYVILLE    FAIR      43  33  68 SW18      30.04R
ZIONSVILLE +   PTSUNNY   38  32  79 SW16G23   30.04R WCI  29

$$

INZ033-034-041-042-049-050-058-059-251800-
EAST CENTRAL INDIANA

CITY           SKY/WX    TMP DP  RH WIND       PRES   REMARKS
MUNCIE         PTSUNNY   42  32  67 W15G23    30.01R
RICHMOND +     FAIR      37  32  81 SW17G26   30.03R WCI  28

$$

INZ060-061-067>069-081>083-085>088-251800-
SOUTHWEST INDIANA

CITY           SKY/WX    TMP DP  RH WIND       PRES   REMARKS
EVANSVILLE     FAIR      45  36  70 W10       30.13S
HUNTINGBURG +  FAIR      45  34  65 W12       30.11F
WASHINGTON +   FAIR      45  33  64 SW10      30.10F

$$

INZ062-063-066-070>080-084-089>092-251800-
SOUTH CENTRAL AND SOUTHEAST INDIANA

CITY           SKY/WX    TMP DP  RH WIND       PRES   REMARKS
BATESVILLE +   SUNNY     41  34  75 MISG      30.05R
BEDFORD +      FAIR      43  32  65 SW15      30.09R
BLOOMINGTON    FAIR      44  34  67 SW16      30.07R
FRENCH LICK *+ FAIR      43  30  61 SW9       30.10F
MADISON *+     FAIR      45  36  70 W5        30.10F
NORTH VERNON + FAIR      41  34  75 SW10G18   30.08R
SEYMOUR +      FAIR      45  34  65 SW10      30.09R

$$





USA.gov is the U.S. government's official web portal to all federal, state and local government web resources and services.